Regional Weather Roundup
Issued by NWS Goodland, KS

Home | Current Version | Previous Version | Text Only | Print | Product List | Glossary On
Versions: 1 2 3 4 5 6 7 8 9 10 11 12 13 14 15 16 17 18 19 20 21 22 23 24 25 26 27 28 29 30 31 32 33 34 35 36 37 38 39 40 41 42 43 44 45 46 47 48 49 50
000
ASUS43 KGLD 282108
RWRGLD

GOODLAND FORECAST AREA HOURLY WEATHER ROUNDUP
NATIONAL WEATHER SERVICE GOODLAND KS
200 PM MST SAT FEB 28 2015

...OFFICIAL OBSERVATIONS...

CITY           SKY/WX    TMP DP  RH WIND       PRES   REMARKS
GOODLAND KS    LGT SNOW  18  12  77 SE6       30.07F
HILL CITY KS   CLOUDY    20  13  74 SE7       30.22F
IMPERIAL NEB     N/A     25   9  50 S3        30.08F
MCCOOK NEB     CLOUDY    27  12  53 S9        30.15F
AKRON CO       PTSUNNY   23  15  71 NE5       29.96F
BURLINGTON CO  CLOUDY    18  11  74 SE7       30.03F
LIMON CO       SUNNY     18  10  71 N10       29.94R WCI   6
$$

...UNOFFICIAL OBSERVATIONS...

CITY           SKY/WX    TMP DP  RH WIND       PRES   REMARKS
COLBY KS       LGT SNOW  19  16  86 SE9       30.13F
GOVE KS          N/A     21  32 100 MISG        N/A
LENORA KS        N/A     20  32 100 S10         N/A  WCI   9
NORTON KS      CLOUDY    21  12  68 SE8       30.19F
SHARON SPRINGS   N/A     20  15  80 S6          N/A
KIT CARSON CO    N/A     19  13  79 MISG        N/A
YUMA CO          N/A     24  13  61 CALM        N/A
$$


USA.gov is the U.S. government's official web portal to all federal, state and local government web resources and services.